This is the latest recevied weather packets stored in our database for station/object K1LVA. If no packets are shown the sender has not sent any weather packets the latest 1 day(s).
| Time | Temp. | Humidity | Pressure | Rain* | Wind** | Luminosity | Snow |
|---|---|---|---|---|---|---|---|
| 1778058582 | 13.89° C | 98% | 1015 hPa | 0 mm | - | 0 W/m² | - |
| 1778058280 | 13.89° C | 99% | 1015 hPa | 0 mm | - | 0 W/m² | - |
| 1778057975 | 13.33° C | 99% | 1015.1 hPa | 0 mm | - | 0 W/m² | - |
| 1778057369 | 12.78° C | 98% | 1015.1 hPa | 0 mm | - | 0 W/m² | - |
| 1778057066 | 12.78° C | 98% | 1015.2 hPa | 0 mm | - | 0 W/m² | - |
| 1778056762 | 12.78° C | 98% | 1015.2 hPa | 0 mm | - | 0 W/m² | - |
| 1778055854 | 12.78° C | 97% | 1015.1 hPa | 0 mm | - | 0 W/m² | - |
| 1778055549 | 12.78° C | 97% | 1015.4 hPa | 0 mm | - | 0 W/m² | - |
| 1778055248 | 13.33° C | 97% | 1015.4 hPa | 0 mm | - | 0 W/m² | - |
| 1778054945 | 13.33° C | 97% | 1015.3 hPa | 0 mm | - | 0 W/m² | - |
| 1778054036 | 13.33° C | 96% | 1015.4 hPa | 0 mm | - | 0 W/m² | - |
| 1778053128 | 13.89° C | 95% | 1015.6 hPa | 0 mm | - | 0 W/m² | - |
| 1778052220 | 13.89° C | 93% | 1015.5 hPa | 0 mm | - | 0 W/m² | - |
| 1778051312 | 14.44° C | 91% | 1015.3 hPa | 0 mm | - | 0 W/m² | - |
| 1778051009 | 15° C | 91% | 1015.1 hPa | 0 mm | - | 0 W/m² | - |
| 1778050403 | 15.56° C | 90% | 1015.3 hPa | 0 mm | - | 0 W/m² | - |
| 1778049185 | 15.56° C | 89% | 1015 hPa | 0 mm | - | 0 W/m² | - |
| 1778048276 | 15.56° C | 87% | 1015.4 hPa | 0 mm | - | 0 W/m² | - |
| 1778047369 | 16.11° C | 86% | 1015.3 hPa | 0 mm | - | 0 W/m² | - |
| 1778046762 | 16.11° C | 86% | 1015.4 hPa | 0 mm | - | 0 W/m² | - |
| 1778046156 | 16.11° C | 85% | 1015.6 hPa | 0 mm | - | 0 W/m² | - |
| 1778045853 | 16.67° C | 85% | 1015.7 hPa | 0 mm | - | 0 W/m² | - |
| 1778045552 | 16.67° C | 85% | 1015.9 hPa | 0 mm | - | 0 W/m² | - |
| 1778045249 | 16.67° C | 85% | 1015.9 hPa | 0 mm | - | 0 W/m² | - |
| 1778044341 | 16.67° C | 83% | 1015.7 hPa | 0 mm | - | 0 W/m² | - |
* Rain latest hour (hover to see other rain measurements)
** Current wind speed in m/s (hover to see current wind gust speed)